User: anonymous   Login
Location: Hylo
(54.6785°N, 112.2142°W)
Time: 14:53:24
(UTC+00:00)
Language:

Tiangong - Orbit

View from above orbital plane
View from above orbital plane
View from above satellite
View from above satellite

Ground track
Ground track

The orbit data is extracted from the following two-line orbital elements,

1 48274U 21035A   24278.10128860  .00092913  00000-0  95447-3 0  9991
2 48274  41.4657 138.9234 0002849 109.8770 250.2376 15.63840714196133
Epoch (UTC): 04 October 2024 02:25:51
Eccentricity: 0.0002849
inclination: 41.4657°
perigee height: 374 km
apogee height: 378 km
right ascension of ascending node: 138.9234°
argument of perigee: 109.8770°
revolutions per day: 15.63840714
mean anomaly at epoch: 250.2376°
orbit number at epoch: 19613

The dashed part of the orbit path shows where the satellite is in the earth's shadow,  

DLR